Weather in Zavodskoy

Russia / Tambov Oblast     53°06′10″N   40°18′45″E
temp.,
°C
wind,
m/s
gust,
m/s
humid.,
%
clouds,
%
prec.,
mm/h
press.,
hPa
HPBL,
m
1 march, mon
mon100:00−6nne119797 0.1 102021
03:00−8nne129793 0.1 102222
06:00−9nne129691 0.0 102427
09:00−8n239388 0.1 1026135
12:00−4nnw238270 0.0 1026379
15:00−2w248250 0.0 1026450
18:00−4wsw389463 0.0 1024214
21:00−5wsw4119561 0.0 1023350
2 march, tue
tue200:00−3wsw5119297 0.0 1021418
03:00−2wsw5129299 0.1 1018560
06:000wsw61291100 0.0 1015639
09:00+1w61291100 0.0 1013818
12:00+1w51195100 0.1 1010651
15:00+1wnw51198100 0.2 1009729
18:00+1wnw41092100 0.2 1009535
21:00−1nw31092100 0.3 1010437
3 march, wed
wed300:00−2nw3109098 0.1 1010317
03:00−3nw4129292 0.1 1011477
06:00−3nw6129195 0.1 1012832
09:00−4nnw7128598 0.1 1014919
12:00−4nnw71181100 0.1 1015916
15:00−2nw6117489 0.1 1016969
18:00−2wnw4108967 0.0 1016689
21:00−2wnw4118983 0.1 1017705
4 march, thu
thu400:00−2w41092100 0.1 1016585
03:00−3w4119298 0.1 1015473
06:00−4wsw4129278 0.0 1013504
09:00−1wsw6138488 0.0 1010724
12:00+1wsw7158267 0.0 1007716
15:00+2wsw8167680 0.0 1005991
18:00+1wsw71772100 0.0 1003937
21:00+1wsw7157798 0.0 1003961
5 march, fri
fri500:00+1wnw61297100 0.3 1002767
03:00−1nw499398 0.4 1005468
06:00−4nnw378999 0.0 1007293
09:00−4n248897 0.0 1009238
12:00−2nne227778 0.0 1011440
15:00−1nne227786 0.0 1012504
18:00−4ne1291100 0.0 101365
21:00−4e2389100 0.0 1014118